Lapse_Rate
8.4 8.0 8.1 8.1 8.1 8.3 9.1 9.1 8.9 8.5 9.7 10.0 10.0 9.9 9.8 9.8 9.9 9.8 10.0 10.0 9.9 9.8 9.9 9.8 9.8 10.0 10.0 10.1 10.1 10.1 9.9 9.8 9.2 9.6 10.1 10.1 9.9 10.0 10.0 9.6 9.6 9.7 9.6
7.8 8.0 8.1 7.8 8.0 8.8 9.6 9.8 9.3 9.7 9.6 9.8 9.9 10.0 9.9 9.9 10.0 10.0 9.8 10.0 9.8 9.7 9.8 9.8 9.8 10.1 9.9 10.0 10.0 9.7 9.7 9.8 9.3 9.0 9.5 9.6 9.7 9.9 10.1 10.0 10.0 9.7 9.1
8.3 8.7 8.3 8.2 8.7 9.6 9.7 9.8 9.7 9.8 10.0 9.9 10.0 9.8 9.9 9.9 10.0 10.0 10.0 9.9 9.8 9.8 9.8 9.8 9.8 9.8 9.8 9.9 9.9 9.8 9.6 9.5 9.3 9.3 9.3 9.6 9.8 9.9 9.8 10.0 9.9 10.1 9.6
8.3 8.7 9.0 8.5 9.1 9.5 9.7 9.8 9.9 9.9 9.8 9.9 10.0 9.9 9.8 10.0 10.0 10.0 9.9 9.9 9.9 9.9 9.9 9.9 9.9 9.8 9.8 9.7 9.8 9.5 9.5 9.1 9.2 9.5 9.2 9.4 9.7 9.9 9.9 9.5 9.1 9.6 9.8
8.1 9.0 9.3 8.9 9.3 9.7 9.7 9.8 9.8 9.8 9.9 9.9 9.9 9.9 9.9 9.9 9.1 8.8 9.2 9.9 9.8 9.7 9.8 10.0 10.0 9.1 7.4 8.1 9.8 9.6 9.5 9.3 9.1 8.9 9.2 9.2 9.0 9.2 9.3 9.5 9.1 9.4 8.6
8.1 8.6 9.1 9.1 9.2 9.6 9.7 9.6 9.8 9.9 9.9 9.9 9.8 9.7 9.7 9.7 4.2 4.2 5.5 9.2 9.8 9.8 9.7 9.8 10.0 9.7 9.8 8.3 9.2 9.4 9.4 9.3 8.8 8.8 8.7 8.5 8.8 9.2 9.1 8.9 8.7 8.9 8.7
8.3 8.2 8.3 8.6 9.0 9.6 9.7 9.8 9.7 9.7 9.8 9.8 9.7 9.6 9.5 9.6 4.2 4.1 4.1 8.4 9.4 9.8 9.7 9.8 9.8 10.2 9.8 10.0 9.7 9.6 9.3 8.8 9.0 9.2 8.7 9.0 8.9 9.3 9.4 9.2 8.9 8.6 8.9
7.9 8.3 8.8 9.4 9.5 9.6 9.7 9.7 9.7 9.8 9.7 9.7 9.7 9.7 9.7 8.5 4.0 4.0 4.3 8.3 9.5 9.7 9.8 9.8 9.9 9.9 9.9 9.3 9.8 9.7 9.8 9.9 9.8 9.8 9.5 9.4 9.4 9.2 8.7 9.3 9.3 9.4 9.6
7.8 9.0 9.4 9.5 9.6 9.6 9.6 9.6 9.7 9.7 9.7 9.7 9.7 9.7 9.4 9.5 4.0 4.2 5.0 7.9 8.3 8.4 9.6 10.1 9.4 9.8 9.2 8.1 9.6 9.5 9.7 9.8 9.3 9.1 9.4 9.1 8.8 8.4 8.6 9.6 9.0 8.8 8.3
8.7 9.0 9.5 9.7 9.6 9.5 9.6 9.6 9.7 9.8 9.6 9.8 9.1 8.2 5.3 8.1 3.8 4.4 5.4 8.0 7.7 8.6 9.8 9.9 9.2 7.2 6.3 7.9 9.3 9.4 9.0 9.4 9.5 9.5 9.7 9.6 9.5 9.3 8.6 9.5 9.5 8.7 8.7
7.8 8.5 9.6 9.7 9.6 9.6 9.7 9.8 9.7 9.7 9.6 8.1 7.2 7.2 7.6 7.1 7.1 4.6 5.1 7.0 7.7 8.0 9.4 9.6 9.9 6.7 6.3 6.6 7.2 9.4 8.7 9.3 9.4 9.2 9.3 9.4 9.7 9.7 9.6 9.5 9.5 9.4 8.9
8.2 8.5 9.4 9.3 8.8 9.4 9.5 9.7 9.6 9.6 9.3 7.5 6.0 6.9 8.8 7.5 5.2 5.5 5.4 5.7 6.2 6.9 7.7 9.6 7.7 6.6 6.0 6.2 6.7 6.5 6.4 7.7 9.3 8.8 8.9 8.9 9.0 9.0 9.3 9.2 9.3 9.3 9.4
7.6 8.2 8.4 8.9 9.1 9.6 9.5 9.5 9.5 9.6 9.3 8.9 9.1 9.0 9.2 9.3 9.6 5.9 5.6 5.7 5.9 6.7 7.4 7.1 5.8 5.7 6.1 7.8 8.1 5.8 7.2 9.6 9.3 8.7 8.7 8.8 8.9 8.9 8.4 8.4 9.0 9.4 9.4
7.0 7.4 8.7 8.5 6.3 9.2 9.7 9.7 9.5 9.3 9.2 9.2 9.1 9.1 9.3 9.4 9.4 9.7 9.5 9.5 7.9 8.1 9.2 8.9 7.0 5.8 6.9 8.0 9.4 9.6 9.7 9.3 9.2 8.9 8.9 9.0 8.8 8.4 8.2 8.3 8.0 8.7 8.7
6.6 7.3 8.3 8.7 8.7 8.9 8.6 9.5 9.4 9.6 9.4 9.3 9.3 9.3 8.7 8.7 9.0 8.5 8.3 9.1 9.1 8.8 6.7 8.7 9.4 9.4 9.3 9.5 9.6 9.6 9.7 9.6 9.4 9.2 8.9 8.8 8.8 8.9 8.8 8.5 8.1 8.0 8.2
5.9 7.5 9.1 9.0 9.2 8.8 8.5 8.4 6.5 6.0 5.6 5.6 5.6 6.4 7.6 7.1 6.4 6.7 6.6 6.8 7.2 7.2 7.8 8.9 8.8 9.0 9.0 9.2 9.2 9.3 9.4 9.3 8.6 8.2 9.0 8.9 8.8 8.7 8.7 8.6 8.4 8.3 8.0
6.5 8.3 8.7 8.5 9.0 8.9 8.9 7.6 8.3 6.6 5.5 5.4 5.7 6.0 6.2 6.7 6.8 6.5 7.0 7.2 7.5 7.4 8.7 8.9 8.6 8.6 9.0 9.3 9.3 9.4 9.3 9.4 7.1 8.0 9.1 9.0 8.8 8.4 8.7 8.7 8.7 8.6 8.4
7.0 5.6 8.2 9.2 9.2 8.9 8.6 8.4 8.1 7.8 7.8 7.4 6.0 6.4 6.8 6.8 7.1 6.9 7.2 7.6 8.7 7.4 8.1 8.7 8.7 8.8 9.0 9.4 9.4 9.4 9.3 8.6 9.0 8.0 8.2 9.1 9.1 8.9 8.7 8.6 8.7 8.4 8.6
7.2 8.4 8.9 8.3 7.9 7.7 8.2 8.8 8.9 8.5 7.8 8.2 8.3 6.9 6.8 6.5 7.0 7.4 7.5 7.9 8.7 8.8 9.0 9.1 9.0 8.7 9.0 9.2 9.1 9.0 8.5 8.3 6.5 6.5 8.2 8.8 9.0 9.2 9.1 9.0 8.8 8.2 8.1
8.6 6.8 6.6 7.4 7.3 7.8 8.0 8.7 8.6 8.3 8.0 8.6 8.8 9.0 9.3 6.8 7.4 7.6 7.6 7.6 7.9 8.9 9.1 9.0 9.1 9.1 8.9 8.9 8.9 8.8 8.9 9.0 9.0 8.3 8.0 8.0 9.1 9.1 9.1 9.1 9.1 9.0 9.0
9.1 9.0 7.8 8.9 8.8 7.4 7.2 7.3 7.9 7.9 8.2 8.6 8.8 8.1 7.4 8.6 8.7 8.7 8.7 8.3 7.9 8.8 9.0 9.1 8.7 8.6 8.6 8.5 8.8 8.9 8.9 8.8 8.5 7.3 7.4 7.4 7.1 8.8 9.2 9.2 9.3 9.3 9.2
8.8 8.8 8.6 7.8 8.1 8.2 8.5 8.7 8.0 7.9 8.0 7.9 8.2 8.1 6.8 6.9 7.5 8.5 8.7 8.4 8.1 8.3 8.6 9.0 8.8 8.8 8.9 8.9 9.0 8.6 8.5 8.7 8.0 7.6 7.3 6.8 7.2 9.2 9.1 9.2 8.9 9.0 9.2
7.3 7.1 6.6 7.1 7.6 7.5 7.3 7.5 7.5 7.3 7.4 7.2 7.6 7.5 8.0 7.3 6.7 7.2 7.4 7.2 7.6 7.6 7.7 8.2 7.4 7.7 8.1 7.6 7.3 7.6 7.9 9.0 8.4 6.8 6.5 6.8 7.6 9.1 9.0 9.1 9.0 8.6 8.1
6.6 6.2 6.5 7.2 7.1 7.6 7.2 7.1 7.0 6.9 6.8 6.9 6.9 6.9 6.7 6.8 6.9 6.6 6.3 6.3 6.3 6.5 6.6 6.9 7.4 7.4 7.5 7.0 6.4 6.5 6.7 6.7 6.1 5.8 4.9 6.1 7.0 8.7 8.9 9.0 9.1 7.9 7.7
7.0 6.5 6.7 7.0 7.0 7.3 7.1 7.1 7.1 7.1 7.1 7.0 6.9 6.9 7.1 7.1 7.0 6.8 6.6 6.6 6.5 6.3 6.1 6.3 6.5 6.6 6.3 6.6 6.7 6.1 6.3 4.9 5.0 5.1 4.9 5.2 5.9 5.9 6.6 7.8 7.8 8.8 7.7
6.4 5.9 6.7 7.4 7.2 7.1 7.2 7.3 7.3 7.2 7.2 7.2 7.2 7.2 7.2 7.3 7.6 7.4 7.3 7.2 7.1 7.0 6.8 6.4 6.0 6.1 6.0 5.7 5.6 5.4 4.9 3.1 3.2 2.8 4.6 5.8 6.3 6.8 7.4 8.2 7.7 8.2 8.9
Wind_Speed
7 5 3 3 4 6 7 8 9 11 11 9 8 6 10 10 12 10 8 7 8 9 10 10 10 11 9 10 11 11 12 12 15 16 14 15 17 16 17 22 24 21 13
7 5 3 2 3 5 7 8 10 10 11 9 9 9 11 13 9 7 8 9 9 11 11 11 12 10 14 14 12 14 13 14 12 20 15 14 16 17 17 15 17 21 18
6 4 1 1 3 5 7 8 10 9 9 10 9 9 9 8 8 8 8 9 8 10 10 11 13 14 14 12 13 13 12 11 11 12 14 13 13 13 13 13 13 15 17
5 3 3 4 4 5 7 8 9 9 9 8 8 9 8 7 7 7 7 8 8 9 10 12 12 13 13 13 13 13 11 11 12 12 12 12 12 13 11 11 10 11 10
5 5 4 5 6 6 7 9 9 9 8 7 7 6 6 5 3 4 5 9 10 10 11 11 11 11 13 12 9 12 13 11 10 11 12 11 11 11 11 10 10 10 9
6 6 6 6 7 7 8 9 10 9 9 9 9 7 6 3 5 3 6 8 8 10 10 10 10 10 8 14 12 13 13 13 14 11 12 12 15 12 10 9 9 9 8
6 6 7 7 8 9 9 10 10 9 9 10 10 7 7 3 4 3 4 8 8 8 9 9 9 7 9 10 14 16 15 15 17 14 15 14 15 13 11 11 9 9 9
6 7 7 8 9 10 10 10 10 8 9 8 8 6 5 4 2 2 6 8 7 8 8 9 9 10 9 11 14 15 14 12 12 10 12 14 13 13 12 11 12 12 10
5 6 8 8 10 10 11 11 10 8 8 8 6 5 5 4 3 1 7 6 6 8 7 8 8 10 12 15 15 14 14 12 14 14 19 21 22 20 17 10 10 10 10
6 7 7 8 10 11 12 11 10 8 8 5 4 4 1 4 5 0 5 5 6 6 7 8 3 6 13 16 12 12 12 12 14 14 13 14 15 13 15 14 10 10 9
5 6 8 9 11 11 11 11 10 9 6 4 4 5 5 4 4 3 1 4 5 6 7 7 6 10 15 16 15 10 12 15 15 11 10 9 9 9 7 9 10 9 9
5 7 9 9 8 8 11 11 8 7 5 4 4 5 5 5 6 7 4 4 5 6 7 7 8 14 16 15 12 14 15 13 8 8 8 8 8 8 8 7 11 12 13
6 9 9 8 8 8 9 7 6 6 5 5 5 5 6 4 5 9 6 6 7 6 6 9 14 14 14 12 7 11 11 7 8 7 8 8 8 9 10 10 12 13 13
8 8 7 7 7 8 5 5 6 5 5 5 5 6 6 5 5 5 4 4 6 7 4 7 8 10 11 9 7 6 6 6 7 7 7 8 8 8 8 7 6 6 7
6 6 7 5 5 7 7 6 5 7 5 6 4 4 5 6 5 2 4 4 4 4 5 6 6 6 6 6 6 6 6 6 6 6 7 8 8 8 7 8 7 6 6
6 6 5 5 5 5 6 7 9 8 4 6 6 5 5 7 3 7 10 9 9 6 6 7 6 6 7 7 6 6 6 6 6 6 7 7 7 8 8 8 7 7 7
8 8 6 5 6 6 5 5 6 7 10 10 11 11 12 12 10 12 12 11 10 7 7 7 6 6 7 6 6 6 6 6 6 6 6 7 7 7 8 7 7 7 6
9 6 7 7 7 6 6 6 5 7 7 7 11 12 14 14 14 13 13 10 8 8 7 7 7 6 6 6 6 6 6 6 5 5 6 6 6 7 7 6 6 6 7
7 7 7 7 7 7 7 8 8 8 8 7 6 6 10 12 11 13 14 9 9 9 8 7 6 7 6 6 5 5 5 5 5 5 5 5 5 6 6 6 6 7 7
8 7 6 7 7 8 8 8 8 7 8 8 7 8 7 4 6 7 8 9 9 9 8 8 7 7 6 6 5 5 5 5 4 5 4 5 5 5 5 6 6 6 6
7 7 6 8 7 6 6 7 8 8 8 9 8 6 9 9 9 8 8 8 9 10 9 9 7 6 6 6 6 6 5 5 4 4 4 4 4 5 5 5 6 6 5
8 8 8 8 8 7 9 9 8 9 10 9 8 8 9 8 9 9 10 9 8 9 8 9 8 8 7 7 6 6 6 5 4 4 4 4 4 4 4 4 4 5 5
9 9 8 8 8 9 8 9 9 9 9 10 9 8 8 8 8 10 10 9 9 9 10 8 7 8 10 10 11 8 6 5 4 3 4 4 4 4 4 4 4 4 4
8 8 9 9 8 9 8 8 8 10 10 9 8 8 8 9 10 11 10 10 10 10 11 10 9 11 10 11 12 12 11 8 7 6 6 4 4 4 4 4 4 3 4
8 9 8 10 9 9 7 7 8 7 8 7 7 8 8 8 9 9 9 9 9 10 11 10 13 14 17 16 16 16 13 13 10 8 7 5 5 4 5 4 4 4 3
9 8 7 7 9 9 8 7 6 5 5 5 5 5 6 7 8 8 8 9 9 9 11 8 14 18 18 19 20 18 17 16 14 12 8 6 5 4 4 4 4 4 4
Wind_Direction
139 152 156 100 43 15 350 342 337 327 325 315 305 286 286 305 304 294 276 282 281 296 307 308 304 303 297 303 298 294 293 294 293 297 302 306 310 310 300 304 296 279 270
151 175 162 67 19 347 340 335 330 317 314 305 295 291 290 298 294 277 281 292 288 304 312 309 306 307 302 300 295 296 296 296 299 294 303 306 302 303 297 293 293 274 291
169 187 176 286 315 325 330 328 321 314 306 298 293 300 297 294 290 282 289 284 285 305 311 306 306 305 301 303 304 303 311 301 290 288 295 300 297 296 297 293 290 279 252
190 222 244 268 292 308 315 318 319 310 302 298 292 294 302 297 292 302 308 301 303 307 307 305 306 305 307 318 308 302 299 300 296 292 294 294 296 295 292 287 309 294 266
215 246 263 261 266 289 301 318 321 304 291 288 299 300 290 286 308 300 307 297 313 315 311 313 311 333 314 302 311 311 308 299 299 294 290 291 295 298 293 298 303 302 304
226 254 265 261 269 284 300 313 308 297 292 285 278 289 278 257 83 51 359 311 312 310 317 316 316 313 322 304 283 290 290 291 295 290 290 291 294 293 295 297 304 289 295
239 262 266 261 263 283 292 299 310 304 297 292 287 276 259 205 127 64 354 309 314 320 319 318 318 316 293 320 318 296 287 276 272 282 283 282 288 288 298 297 290 291 289
243 266 270 267 272 284 285 290 305 295 297 294 295 262 243 127 146 36 316 307 316 322 320 317 317 321 334 333 315 308 306 302 302 303 299 301 304 301 297 297 300 298 286
254 272 283 286 280 289 287 284 293 291 289 288 283 250 234 182 149 14 312 322 326 319 319 315 330 320 351 321 312 313 309 308 319 302 301 295 292 282 280 289 280 273 276
275 286 288 289 291 290 288 280 285 277 275 273 251 242 109 214 152 153 325 323 321 317 317 321 319 332 323 322 317 315 311 316 319 316 308 298 285 273 253 254 266 266 267
277 283 291 296 297 292 286 279 278 265 263 251 228 218 220 224 183 184 292 313 319 320 321 320 324 335 321 321 319 305 323 316 309 309 309 307 301 292 281 266 259 258 260
284 291 294 301 299 292 287 283 260 254 249 221 212 233 231 236 216 188 227 272 315 304 309 318 315 326 314 314 306 334 320 306 309 310 310 313 315 312 303 293 276 261 258
285 291 299 300 298 305 295 270 246 242 240 230 226 249 276 236 244 198 232 253 268 285 307 312 304 303 301 297 339 313 309 331 323 318 321 320 320 311 297 276 265 256 247
288 291 297 306 332 305 286 254 252 242 243 235 250 280 292 279 250 258 246 244 215 255 289 313 306 282 275 282 296 325 334 338 324 311 319 318 318 320 319 333 304 247 233
283 285 290 300 303 305 296 279 253 266 242 236 264 286 296 277 274 248 254 276 299 336 317 297 301 316 315 320 324 330 331 339 334 329 319 324 330 333 337 338 339 323 251
272 277 293 309 311 296 285 276 223 247 198 233 255 246 256 247 236 210 213 234 259 266 285 296 307 311 313 319 324 327 332 334 344 325 326 329 331 331 332 339 345 346 1
267 278 287 280 286 293 290 276 273 202 216 228 233 233 233 250 224 229 229 238 252 244 261 288 298 301 306 310 317 323 326 339 322 330 327 329 330 327 328 340 349 348 352
265 257 276 280 287 291 283 258 253 262 251 234 220 234 231 234 233 231 233 232 256 227 248 269 285 292 294 304 314 321 322 324 326 330 324 330 331 323 326 340 345 347 343
277 280 289 294 285 278 276 271 269 270 251 254 260 216 226 235 238 233 225 236 254 261 262 266 270 273 280 289 301 304 307 306 319 313 319 322 331 327 331 335 332 330 317
273 248 256 287 286 280 267 267 267 246 241 248 253 264 273 175 231 234 224 228 237 251 258 264 267 271 273 277 280 285 285 293 300 304 319 315 324 321 328 327 333 326 331
268 268 254 269 282 272 266 270 265 261 253 256 256 239 233 252 250 249 247 235 230 247 248 253 255 254 254 253 263 274 275 288 288 294 301 311 317 314 327 322 322 325 328
265 271 272 267 272 272 271 272 267 262 254 246 250 252 216 233 250 255 250 246 240 239 241 244 248 244 240 245 248 249 261 267 270 266 281 291 294 307 316 320 323 327 330
262 262 262 266 263 266 263 267 265 260 259 249 242 248 244 233 236 246 248 242 235 232 232 234 231 238 237 233 234 235 244 250 249 243 259 274 283 298 307 314 323 323 338
250 249 254 262 261 260 265 265 263 261 257 253 242 235 239 241 243 243 243 240 235 232 224 218 220 223 223 214 217 220 224 222 214 211 224 255 272 272 286 299 298 323 316
244 250 258 267 267 260 258 255 256 259 261 256 249 251 254 254 254 255 254 252 246 237 226 216 211 214 215 211 209 210 206 191 196 201 204 227 247 268 270 284 298 287 302
244 240 258 270 275 259 250 260 264 271 277 279 280 278 277 276 274 273 271 261 257 249 237 223 212 207 205 207 208 200 190 183 184 190 207 224 234 242 252 265 269 282 280